NORTHEAST SUFFOLK  -  Frost Advisory Frost Advisory        NORTHWEST SUFFOLK  -  Frost Advisory Frost Advisory        SOUTHEAST SUFFOLK  -  Frost Advisory Frost Advisory        SOUTHWEST SUFFOLK  -  Frost Advisory Frost Advisory      

Active alerts

Northwest Suffolk
  Details for Northwest Suffolk Frost Advisory
Southwest Suffolk
  Details for Southwest Suffolk Frost Advisory
Northeast Suffolk
  Details for Northeast Suffolk Frost Advisory
Southeast Suffolk
  Details for Southeast Suffolk Frost Advisory


WXM80 ListenWXM80 Stop

You find our weather info also at:

UK Metoffice

WeatherCloud

Weather Underground

Northeastern Weather Network

AWEKAS

Citizen Weather Observer Program (CWOP)

HAMweather, WeatherForYou, PWS Weather


Weather Underground History page Text

Daily Summary for February 1, 2017 Units:  English    Metric   Both
« Previous Day
Next Day »
Daily Weekly Monthly Yearly Custom
  High: Low: Average:
Temperature: 45.6 °F 29.8 °F 38.9 °F
Dew Point: 33.9 °F 28.3 °F 31 °F
Humidity: 96 % 54 % 75 %
Wind Speed: 10.8 mph 0.0 mph 3.3 mph
Wind Gust: 20.0 mph - -
Wind:- - WSW
Pressure: 30.01 in 29.80 in -
Precipitation: 0.00 in    
Historical Graphs
 
 
Tabular Data for February 1, 2017
Time Temperature Dew Point Pressure Wind Wind Speed Wind Gust Humidity Rainfall Rate (Hourly)
00:02 31.7 °F 30.2 °F 29.81 in ENE 0.4 mph 1.2 mph 94 % 0.00 in
00:07 31.7 °F 30.2 °F 29.81 in East 1.1 mph 2.3 mph 94 % 0.00 in
00:12 31.7 °F 30.4 °F 29.81 in Calm   1.2 mph 95 % 0.00 in
00:17 31.7 °F 30.4 °F 29.81 in East 0.5 mph 1.2 mph 95 % 0.00 in
00:22 31.7 °F 30.4 °F 29.80 in Calm     95 % 0.00 in
00:27 31.6 °F 30.3 °F 29.80 in Calm     95 % 0.00 in
00:32 31.7 °F 30.4 °F 29.81 in East 0.1 mph 1.2 mph 95 % 0.00 in
00:37 31.6 °F 30.3 °F 29.81 in Calm   1.2 mph 95 % 0.00 in
00:42 31.6 °F 30.3 °F 29.81 in East 0.2 mph 1.2 mph 95 % 0.00 in
00:47 31.6 °F 30.3 °F 29.81 in Calm     95 % 0.00 in
00:52 31.6 °F 30.3 °F 29.81 in Calm     95 % 0.00 in
00:57 31.6 °F 30.3 °F 29.81 in East 0.1 mph 2.3 mph 95 % 0.00 in
01:02 31.6 °F 30.3 °F 29.81 in Calm   1.2 mph 95 % 0.00 in
01:07 31.6 °F 30.3 °F 29.81 in Calm     95 % 0.00 in
01:12 31.6 °F 30.3 °F 29.82 in Calm     95 % 0.00 in
01:17 31.5 °F 30.2 °F 29.83 in Calm     95 % 0.00 in
01:22 31.6 °F 30.3 °F 29.83 in Calm     95 % 0.00 in
01:27 31.6 °F 30.3 °F 29.83 in Calm     95 % 0.00 in
01:32 31.5 °F 30.2 °F 29.83 in Calm     95 % 0.00 in
01:38 31.6 °F 30.3 °F 29.83 in Calm     95 % 0.00 in
01:43 31.5 °F 30.2 °F 29.83 in Calm     95 % 0.00 in
01:48 31.5 °F 30.2 °F 29.83 in Calm   1.2 mph 95 % 0.00 in
01:53 31.5 °F 30.2 °F 29.83 in SSE 1.2 mph 2.3 mph 95 % 0.00 in
01:58 31.5 °F 30.2 °F 29.83 in SSW 0.4 mph 3.5 mph 95 % 0.00 in
02:03 31.5 °F 30.2 °F 29.83 in Calm     95 % 0.00 in
02:08 31.5 °F 30.2 °F 29.83 in SW 0.8 mph 3.0 mph 95 % 0.00 in
02:13 31.6 °F 30.3 °F 29.84 in SW 2.0 mph 2.3 mph 95 % 0.00 in
02:18 31.6 °F 30.3 °F 29.83 in Calm     95 % 0.00 in
02:23 31.7 °F 30.4 °F 29.83 in SW 2.1 mph 3.5 mph 95 % 0.00 in
02:28 31.7 °F 30.4 °F 29.83 in Calm   1.2 mph 95 % 0.00 in
02:33 31.7 °F 30.4 °F 29.83 in Calm   1.0 mph 95 % 0.00 in
02:38 31.7 °F 30.4 °F 29.83 in Calm     95 % 0.00 in
02:43 31.7 °F 30.4 °F 29.83 in Calm     95 % 0.00 in
02:48 31.6 °F 30.3 °F 29.83 in Calm   1.2 mph 95 % 0.00 in
02:53 31.6 °F 30.3 °F 29.83 in Calm     95 % 0.00 in
02:58 31.5 °F 30.2 °F 29.83 in Calm     95 % 0.00 in
03:03 31.5 °F 30.2 °F 29.83 in Calm     95 % 0.00 in
03:08 31.5 °F 30.2 °F 29.82 in Calm   1.2 mph 95 % 0.00 in
03:13 31.4 °F 30.1 °F 29.83 in Calm     95 % 0.00 in
03:18 31.3 °F 30.0 °F 29.82 in Calm     95 % 0.00 in
03:19 31.3 °F 30.0 °F 29.82 in Calm     95 % 0.00 in
03:24 31.2 °F 29.7 °F 29.83 in Calm     94 % 0.00 in
03:29 31.0 °F 29.5 °F 29.82 in Calm     94 % 0.00 in
03:35 30.8 °F 29.3 °F 29.82 in Calm     94 % 0.00 in
03:40 30.6 °F 29.1 °F 29.83 in SW 1.0 mph 2.3 mph 94 % 0.00 in
03:45 30.5 °F 29.0 °F 29.84 in SW 0.5 mph 2.3 mph 94 % 0.00 in
03:50 30.3 °F 28.8 °F 29.85 in SW 0.1 mph 1.2 mph 94 % 0.00 in
03:55 30.2 °F 28.7 °F 29.85 in SW 1.0 mph 2.3 mph 94 % 0.00 in
04:00 30.1 °F 28.6 °F 29.84 in SW 1.1 mph 2.3 mph 94 % 0.00 in
04:05 29.9 °F 28.4 °F 29.84 in SW 0.4 mph 1.2 mph 94 % 0.00 in
04:10 29.9 °F 28.4 °F 29.84 in SW 0.2 mph 1.2 mph 94 % 0.00 in
04:15 29.8 °F 28.3 °F 29.84 in SW 0.4 mph 2.3 mph 94 % 0.00 in
04:20 29.9 °F 28.4 °F 29.84 in SW 0.1 mph 1.2 mph 94 % 0.00 in
04:25 29.9 °F 28.4 °F 29.84 in SW 0.9 mph 3.5 mph 94 % 0.00 in
04:30 29.9 °F 28.4 °F 29.84 in SW 2.3 mph 3.5 mph 94 % 0.00 in
04:31 29.9 °F 28.4 °F 29.83 in SW 1.9 mph 3.5 mph 94 % 0.00 in
04:36 30.0 °F 28.5 °F 29.83 in SW 0.3 mph 1.2 mph 94 % 0.00 in
04:41 30.1 °F 28.6 °F 29.83 in SW 0.5 mph 2.0 mph 94 % 0.00 in
04:46 30.2 °F 28.9 °F 29.83 in SW 4.1 mph 6.9 mph 95 % 0.00 in
04:51 30.3 °F 29.0 °F 29.83 in SW 1.8 mph 5.0 mph 95 % 0.00 in
04:56 30.6 °F 29.3 °F 29.83 in SW 3.4 mph 6.0 mph 95 % 0.00 in
05:01 30.9 °F 29.6 °F 29.83 in SW 2.4 mph 3.5 mph 95 % 0.00 in
05:06 31.5 °F 30.5 °F 29.83 in SW 4.8 mph 6.9 mph 96 % 0.00 in
05:11 31.9 °F 30.6 °F 29.83 in SSW 3.9 mph 8.1 mph 95 % 0.00 in
05:16 32.3 °F 31.0 °F 29.83 in SW 1.8 mph 5.0 mph 95 % 0.00 in
05:21 32.6 °F 31.3 °F 29.84 in SSW 2.3 mph 8.1 mph 95 % 0.00 in
05:26 33.0 °F 31.7 °F 29.84 in SSW 3.4 mph 7.0 mph 95 % 0.00 in
05:31 33.4 °F 31.9 °F 29.84 in SW 2.9 mph 9.0 mph 94 % 0.00 in
05:36 33.8 °F 32.3 °F 29.84 in SW 7.7 mph 11.5 mph 94 % 0.00 in
05:41 34.4 °F 32.6 °F 29.84 in SSW 5.0 mph 11.5 mph 93 % 0.00 in
05:46 34.9 °F 32.5 °F 29.85 in SSW 4.7 mph 6.9 mph 91 % 0.00 in
05:51 35.4 °F 32.5 °F 29.85 in SW 5.7 mph 9.2 mph 89 % 0.00 in
05:56 35.7 °F 32.5 °F 29.85 in SSW 2.1 mph 5.8 mph 88 % 0.00 in
06:02 35.9 °F 32.4 °F 29.86 in SSW 7.2 mph 9.0 mph 87 % 0.00 in
06:07 36.1 °F 32.3 °F 29.86 in SSW 2.0 mph 2.3 mph 86 % 0.00 in
06:12 36.3 °F 32.2 °F 29.86 in SSW 3.3 mph 11.5 mph 85 % 0.00 in
06:17 36.3 °F 31.9 °F 29.86 in South 6.2 mph 10.4 mph 84 % 0.00 in
06:22 36.4 °F 32.0 °F 29.86 in SW 4.2 mph 10.4 mph 84 % 0.00 in
06:27 36.4 °F 31.7 °F 29.86 in SSW 4.4 mph 7.0 mph 83 % 0.00 in
06:32 36.5 °F 31.8 °F 29.86 in South 7.1 mph 12.7 mph 83 % 0.00 in
06:37 36.6 °F 31.9 °F 29.86 in NNW 2.8 mph 10.4 mph 83 % 0.00 in
06:42 36.6 °F 31.6 °F 29.86 in WSW 4.7 mph 8.1 mph 82 % 0.00 in
06:47 36.6 °F 31.6 °F 29.86 in SW 5.3 mph 8.1 mph 82 % 0.00 in
06:52 36.6 °F 31.3 °F 29.87 in SW 3.9 mph 6.9 mph 81 % 0.00 in
06:57 36.7 °F 31.4 °F 29.87 in WSW 4.5 mph 9.2 mph 81 % 0.00 in
07:02 36.8 °F 31.2 °F 29.87 in South 5.2 mph 6.9 mph 80 % 0.00 in
07:07 36.9 °F 31.3 °F 29.88 in SSW 3.4 mph 6.9 mph 80 % 0.00 in
07:12 36.9 °F 31.3 °F 29.88 in SW 4.3 mph 6.9 mph 80 % 0.00 in
07:17 37.0 °F 31.4 °F 29.88 in SW 3.3 mph 5.8 mph 80 % 0.00 in
07:22 37.0 °F 31.4 °F 29.88 in SSW 4.9 mph 6.0 mph 80 % 0.00 in
07:27 37.0 °F 31.4 °F 29.88 in WSW 5.7 mph 8.1 mph 80 % 0.00 in
07:32 37.1 °F 31.2 °F 29.88 in SW 2.7 mph 4.6 mph 79 % 0.00 in
07:37 37.2 °F 31.3 °F 29.88 in South 4.9 mph 6.9 mph 79 % 0.00 in
07:42 37.2 °F 31.3 °F 29.88 in WSW 3.8 mph 8.1 mph 79 % 0.00 in
07:47 37.3 °F 31.1 °F 29.88 in SSW 6.4 mph 11.5 mph 78 % 0.00 in
07:53 37.5 °F 31.3 °F 29.88 in WSW 3.8 mph 10.4 mph 78 % 0.00 in
07:58 37.6 °F 31.0 °F 29.88 in South 3.5 mph 7.0 mph 77 % 0.00 in
08:03 37.8 °F 31.2 °F 29.88 in West 2.0 mph 8.1 mph 77 % 0.00 in
08:08 37.8 °F 31.2 °F 29.89 in WSW 1.5 mph 6.0 mph 77 % 0.00 in
08:13 37.9 °F 31.0 °F 29.89 in SW 4.6 mph 8.1 mph 76 % 0.00 in
08:18 38.1 °F 30.9 °F 29.89 in WSW 2.0 mph 6.9 mph 75 % 0.00 in
08:23 38.3 °F 31.1 °F 29.89 in SSW 3.0 mph 5.8 mph 75 % 0.00 in
08:28 38.5 °F 30.9 °F 29.89 in WSW 6.6 mph 9.2 mph 74 % 0.00 in
08:33 38.8 °F 31.2 °F 29.89 in South 5.7 mph 10.0 mph 74 % 0.00 in
08:38 39.2 °F 31.3 °F 29.89 in SW 3.0 mph 4.6 mph 73 % 0.00 in
08:43 39.6 °F 31.3 °F 29.88 in WSW 5.0 mph 13.0 mph 72 % 0.00 in
08:48 39.8 °F 31.2 °F 29.88 in WSW 6.0 mph 16.0 mph 71 % 0.00 in
08:53 40.3 °F 30.9 °F 29.89 in WSW 9.0 mph 20.0 mph 69 % 0.00 in
08:58 40.7 °F 31.0 °F 29.89 in West 3.4 mph 8.1 mph 68 % 0.00 in
09:03 40.8 °F 31.4 °F 29.89 in WSW 2.0 mph 15.0 mph 69 % 0.00 in
09:08 40.9 °F 31.1 °F 29.89 in SW 6.0 mph 12.0 mph 68 % 0.00 in
09:13 41.0 °F 31.2 °F 29.89 in WSW 5.5 mph 11.5 mph 68 % 0.00 in
09:18 41.1 °F 31.0 °F 29.89 in SW 5.0 mph 13.0 mph 67 % 0.00 in
09:23 41.3 °F 30.8 °F 29.89 in SW 6.0 mph 12.0 mph 66 % 0.00 in
09:28 41.4 °F 30.9 °F 29.89 in West 6.7 mph 13.0 mph 66 % 0.00 in
09:33 41.5 °F 30.6 °F 29.89 in WSW 7.0 mph 15.0 mph 65 % 0.00 in
09:38 41.6 °F 31.1 °F 29.90 in WSW 7.0 mph 14.0 mph 66 % 0.00 in
09:43 41.7 °F 30.8 °F 29.91 in WSW 6.0 mph 15.0 mph 65 % 0.00 in
09:48 41.8 °F 30.5 °F 29.90 in WSW 7.0 mph 12.0 mph 64 % 0.00 in
09:53 41.9 °F 30.6 °F 29.90 in WSW 3.0 mph 15.0 mph 64 % 0.00 in
09:59 42.0 °F 30.7 °F 29.90 in SW 5.9 mph 15.0 mph 64 % 0.00 in
10:04 42.0 °F 30.3 °F 29.90 in West 8.3 mph 12.7 mph 63 % 0.00 in
10:09 42.0 °F 30.7 °F 29.90 in NW 3.8 mph 10.0 mph 64 % 0.00 in
10:14 42.1 °F 30.8 °F 29.90 in West 5.2 mph 10.4 mph 64 % 0.00 in
10:19 42.1 °F 30.8 °F 29.90 in WSW 5.1 mph 9.2 mph 64 % 0.00 in
10:24 42.2 °F 30.5 °F 29.90 in WNW 5.0 mph 11.5 mph 63 % 0.00 in
10:29 42.2 °F 30.5 °F 29.90 in WSW 9.7 mph 18.0 mph 63 % 0.00 in
10:34 42.2 °F 30.1 °F 29.90 in West 9.6 mph 16.1 mph 62 % 0.00 in
10:39 42.1 °F 30.0 °F 29.90 in WNW 9.9 mph 15.0 mph 62 % 0.00 in
10:44 42.1 °F 29.6 °F 29.90 in WSW 8.8 mph 15.0 mph 61 % 0.00 in
10:49 42.1 °F 29.6 °F 29.90 in SE 4.8 mph 11.5 mph 61 % 0.00 in
10:54 42.1 °F 29.6 °F 29.90 in WSW 7.0 mph 18.4 mph 61 % 0.00 in
10:59 42.2 °F 29.7 °F 29.90 in WSW 8.9 mph 12.0 mph 61 % 0.00 in
11:04 42.2 °F 29.3 °F 29.90 in West 10.8 mph 19.6 mph 60 % 0.00 in
11:09 42.2 °F 29.3 °F 29.90 in WNW 7.7 mph 13.8 mph 60 % 0.00 in
11:14 42.3 °F 29.8 °F 29.91 in SW 9.4 mph 13.0 mph 61 % 0.00 in
11:19 42.4 °F 29.1 °F 29.90 in WSW 8.9 mph 12.0 mph 59 % 0.00 in
11:24 42.4 °F 29.1 °F 29.90 in WSW 7.3 mph 11.5 mph 59 % 0.00 in
11:29 42.5 °F 29.2 °F 29.90 in WSW 10.7 mph 18.4 mph 59 % 0.00 in
11:35 42.5 °F 29.2 °F 29.90 in SSW 5.8 mph 11.5 mph 59 % 0.00 in
11:40 42.6 °F 29.7 °F 29.90 in SW 8.9 mph 14.0 mph 60 % 0.00 in
11:45 42.6 °F 29.3 °F 29.89 in WNW 4.6 mph 11.5 mph 59 % 0.00 in
11:50 42.8 °F 29.5 °F 29.90 in West 6.8 mph 10.4 mph 59 % 0.00 in
11:55 42.8 °F 29.5 °F 29.90 in WSW 3.6 mph 6.0 mph 59 % 0.00 in
12:00 43.2 °F 30.6 °F 29.89 in WSW 5.2 mph 10.0 mph 61 % 0.00 in
12:05 43.6 °F 29.8 °F 29.88 in SSW 4.3 mph 9.2 mph 58 % 0.00 in
12:10 44.1 °F 30.3 °F 29.88 in WSW 5.5 mph 9.2 mph 58 % 0.00 in
12:15 44.1 °F 29.8 °F 29.88 in West 4.6 mph 8.1 mph 57 % 0.00 in
12:20 44.1 °F 29.4 °F 29.88 in WSW 6.6 mph 12.7 mph 56 % 0.00 in
12:25 44.0 °F 28.9 °F 29.88 in SW 7.4 mph 13.8 mph 55 % 0.00 in
12:30 44.0 °F 29.3 °F 29.88 in West 4.4 mph 12.0 mph 56 % 0.00 in
12:35 44.0 °F 28.9 °F 29.88 in West 6.6 mph 9.2 mph 55 % 0.00 in
12:40 43.9 °F 29.2 °F 29.88 in West 7.5 mph 11.0 mph 56 % 0.00 in
12:45 43.9 °F 29.2 °F 29.88 in West 4.9 mph 10.0 mph 56 % 0.00 in
12:50 43.8 °F 29.1 °F 29.87 in SW 6.3 mph 11.5 mph 56 % 0.00 in
12:55 43.9 °F 29.6 °F 29.88 in SW 4.0 mph 6.9 mph 57 % 0.00 in
13:00 44.0 °F 29.7 °F 29.87 in SSW 4.7 mph 9.2 mph 57 % 0.00 in
13:05 44.3 °F 30.0 °F 29.87 in SW 4.7 mph 8.1 mph 57 % 0.00 in
13:11 44.6 °F 29.9 °F 29.87 in SW 5.7 mph 8.1 mph 56 % 0.00 in
13:16 44.9 °F 30.6 °F 29.87 in WSW 5.5 mph 9.2 mph 57 % 0.00 in
13:21 45.2 °F 30.0 °F 29.86 in SSW 4.7 mph 11.5 mph 55 % 0.00 in
13:26 45.5 °F 30.3 °F 29.86 in WSW 6.7 mph 11.5 mph 55 % 0.00 in
13:31 45.6 °F 30.3 °F 29.87 in SSW 3.8 mph 4.6 mph 55 % 0.00 in
13:36 45.6 °F 30.3 °F 29.87 in West 4.9 mph 9.2 mph 55 % 0.00 in
13:41 45.6 °F 30.3 °F 29.86 in SSW 5.7 mph 9.2 mph 55 % 0.00 in
13:46 45.5 °F 29.8 °F 29.86 in WSW 5.1 mph 11.5 mph 54 % 0.00 in
13:51 45.5 °F 30.3 °F 29.87 in WSW 4.6 mph 6.9 mph 55 % 0.00 in
13:56 45.5 °F 29.8 °F 29.86 in WSW 1.9 mph 4.6 mph 54 % 0.00 in
14:01 45.4 °F 30.2 °F 29.86 in West 4.6 mph 8.1 mph 55 % 0.00 in
14:06 45.4 °F 29.7 °F 29.86 in WSW 1.8 mph 3.5 mph 54 % 0.00 in
14:11 45.4 °F 29.7 °F 29.86 in West 2.4 mph 4.0 mph 54 % 0.00 in
14:16 45.4 °F 30.2 °F 29.86 in West 3.0 mph 4.6 mph 55 % 0.00 in
14:21 45.4 °F 30.2 °F 29.86 in WSW 3.5 mph 8.1 mph 55 % 0.00 in
14:26 45.3 °F 30.1 °F 29.86 in SW 3.2 mph 7.0 mph 55 % 0.00 in
14:31 45.3 °F 30.1 °F 29.86 in WSW 1.4 mph 3.5 mph 55 % 0.00 in
14:36 45.2 °F 30.0 °F 29.86 in SW 2.3 mph 4.6 mph 55 % 0.00 in
14:41 45.3 °F 30.1 °F 29.87 in WSW 1.6 mph 4.6 mph 55 % 0.00 in
14:46 45.2 °F 30.0 °F 29.87 in WSW 3.5 mph 5.8 mph 55 % 0.00 in
14:51 45.2 °F 30.0 °F 29.87 in West 8.2 mph 16.1 mph 55 % 0.00 in
14:56 45.2 °F 30.0 °F 29.87 in West 1.5 mph 5.8 mph 55 % 0.00 in
15:01 45.2 °F 30.4 °F 29.87 in SW 0.2 mph 2.3 mph 56 % 0.00 in
15:06 45.1 °F 29.9 °F 29.87 in WSW 1.7 mph 3.5 mph 55 % 0.00 in
15:11 45.1 °F 30.8 °F 29.87 in WSW 0.4 mph 3.5 mph 57 % 0.00 in
15:12 45.1 °F 30.8 °F 29.87 in WSW 0.2 mph 1.2 mph 57 % 0.00 in
15:17 45.1 °F 30.3 °F 29.88 in WSW 2.8 mph 4.0 mph 56 % 0.00 in
15:22 45.0 °F 30.2 °F 29.88 in WSW 0.9 mph 3.5 mph 56 % 0.00 in
15:27 45.0 °F 30.2 °F 29.88 in WSW 0.4 mph 2.3 mph 56 % 0.00 in
15:32 45.0 °F 30.2 °F 29.88 in WSW 4.5 mph 13.0 mph 56 % 0.00 in
15:37 45.0 °F 29.3 °F 29.89 in WSW 5.8 mph 11.5 mph 54 % 0.00 in
15:42 45.1 °F 30.3 °F 29.88 in WSW 2.0 mph 9.2 mph 56 % 0.00 in
15:47 45.1 °F 30.3 °F 29.88 in West 2.7 mph 9.2 mph 56 % 0.00 in
15:52 45.1 °F 30.3 °F 29.89 in WSW 4.9 mph 8.0 mph 56 % 0.00 in
15:57 45.0 °F 30.7 °F 29.89 in SW 2.6 mph 5.8 mph 57 % 0.00 in
16:02 44.9 °F 30.6 °F 29.89 in West 4.2 mph 11.5 mph 57 % 0.00 in
16:07 45.0 °F 30.2 °F 29.89 in WSW 2.9 mph 8.1 mph 56 % 0.00 in
16:13 45.0 °F 30.2 °F 29.89 in WNW 6.6 mph 11.5 mph 56 % 0.00 in
16:18 45.1 °F 30.8 °F 29.89 in SW 4.9 mph 10.0 mph 57 % 0.00 in
16:23 45.1 °F 31.2 °F 29.90 in SW 2.1 mph 8.1 mph 58 % 0.00 in
16:28 45.0 °F 30.7 °F 29.90 in West 1.1 mph 3.5 mph 57 % 0.00 in
16:33 45.0 °F 31.1 °F 29.90 in SW 2.3 mph 8.0 mph 58 % 0.00 in
16:38 44.9 °F 31.0 °F 29.90 in West 3.4 mph 8.1 mph 58 % 0.00 in
16:43 44.8 °F 30.5 °F 29.90 in WSW 3.8 mph 8.1 mph 57 % 0.00 in
16:48 44.7 °F 30.4 °F 29.90 in WSW 7.1 mph 10.4 mph 57 % 0.00 in
16:53 44.6 °F 30.3 °F 29.91 in WNW 4.0 mph 8.1 mph 57 % 0.00 in
16:58 44.4 °F 30.5 °F 29.91 in West 3.0 mph 5.8 mph 58 % 0.00 in
17:03 44.3 °F 30.9 °F 29.91 in WSW 5.4 mph 11.5 mph 59 % 0.00 in
17:08 44.1 °F 31.1 °F 29.91 in WSW 7.5 mph 11.5 mph 60 % 0.00 in
17:13 43.9 °F 30.9 °F 29.91 in WSW 4.1 mph 10.4 mph 60 % 0.00 in
17:18 43.8 °F 31.2 °F 29.92 in West 5.8 mph 11.5 mph 61 % 0.00 in
17:23 43.7 °F 31.1 °F 29.92 in West 2.3 mph 5.8 mph 61 % 0.00 in
17:28 43.6 °F 31.0 °F 29.92 in WSW 3.9 mph 6.9 mph 61 % 0.00 in
17:33 43.5 °F 30.9 °F 29.92 in West 6.0 mph 8.1 mph 61 % 0.00 in
17:38 43.4 °F 30.8 °F 29.92 in West 4.9 mph 9.2 mph 61 % 0.00 in
17:43 43.3 °F 31.1 °F 29.92 in WSW 4.0 mph 8.0 mph 62 % 0.00 in
17:48 43.3 °F 31.5 °F 29.92 in WSW 3.6 mph 8.1 mph 63 % 0.00 in
17:53 43.1 °F 31.7 °F 29.93 in WSW 3.5 mph 6.9 mph 64 % 0.00 in
17:58 42.9 °F 31.9 °F 29.93 in SW 1.8 mph 8.1 mph 65 % 0.00 in
18:03 42.8 °F 31.8 °F 29.93 in West 3.4 mph 5.8 mph 65 % 0.00 in
18:08 42.6 °F 31.7 °F 29.93 in Calm   3.0 mph 65 % 0.00 in
18:13 42.5 °F 31.6 °F 29.93 in Calm   2.0 mph 65 % 0.00 in
18:18 42.4 °F 31.8 °F 29.94 in WSW 2.0 mph 8.0 mph 66 % 0.00 in
18:23 42.2 °F 31.6 °F 29.94 in WSW 3.0 mph 8.0 mph 66 % 0.00 in
18:28 42.0 °F 31.5 °F 29.95 in WSW 1.0 mph 5.0 mph 66 % 0.00 in
18:33 41.9 °F 31.7 °F 29.95 in West 1.0 mph 7.0 mph 67 % 0.00 in
18:38 41.9 °F 31.7 °F 29.95 in WSW 2.0 mph 6.0 mph 67 % 0.00 in
18:43 41.8 °F 31.6 °F 29.95 in WSW 2.0 mph 5.0 mph 67 % 0.00 in
18:48 41.8 °F 32.0 °F 29.95 in WSW 2.0 mph 9.0 mph 68 % 0.00 in
18:53 41.8 °F 32.0 °F 29.95 in WSW 2.0 mph 10.0 mph 68 % 0.00 in
18:58 41.9 °F 32.1 °F 29.95 in WSW 4.5 mph 9.0 mph 68 % 0.00 in
19:03 42.0 °F 32.6 °F 29.96 in West 3.0 mph 12.0 mph 69 % 0.00 in
19:08 42.1 °F 33.4 °F 29.97 in NW 3.0 mph 6.0 mph 71 % 0.00 in
19:13 41.9 °F 33.5 °F 29.97 in NNW 2.0 mph 6.0 mph 72 % 0.00 in
19:18 41.6 °F 33.2 °F 29.96 in WNW 1.9 mph 3.5 mph 72 % 0.00 in
19:23 41.5 °F 33.5 °F 29.96 in WNW 1.0 mph 6.0 mph 73 % 0.00 in
19:28 41.3 °F 33.6 °F 29.96 in WNW 1.0 mph 5.0 mph 74 % 0.00 in
19:33 41.1 °F 33.4 °F 29.96 in WSW 1.0 mph 3.0 mph 74 % 0.00 in
19:38 40.9 °F 33.3 °F 29.97 in WSW 1.0 mph 3.0 mph 74 % 0.00 in
19:43 40.7 °F 33.1 °F 29.97 in WSW 2.0 mph 5.0 mph 74 % 0.00 in
19:48 40.5 °F 33.2 °F 29.97 in West 3.0 mph 8.0 mph 75 % 0.00 in
19:53 40.4 °F 33.1 °F 29.97 in WSW 2.0 mph 7.0 mph 75 % 0.00 in
19:59 40.2 °F 33.2 °F 29.97 in WSW 3.7 mph 6.9 mph 76 % 0.00 in
20:04 40.1 °F 33.5 °F 29.97 in WNW 2.9 mph 8.1 mph 77 % 0.00 in
20:09 40.0 °F 33.4 °F 29.97 in WSW 2.8 mph 6.9 mph 77 % 0.00 in
20:14 39.9 °F 33.6 °F 29.97 in WSW 1.4 mph 3.5 mph 78 % 0.00 in
20:19 39.8 °F 33.5 °F 29.98 in SW 0.6 mph 2.3 mph 78 % 0.00 in
20:24 39.7 °F 33.4 °F 29.98 in WSW 3.2 mph 4.6 mph 78 % 0.00 in
20:29 39.6 °F 33.3 °F 29.98 in WSW 1.2 mph 2.3 mph 78 % 0.00 in
20:34 39.5 °F 33.5 °F 29.97 in WSW 0.7 mph 3.5 mph 79 % 0.00 in
20:39 39.4 °F 33.4 °F 29.98 in SSW 0.9 mph 4.0 mph 79 % 0.00 in
20:44 39.2 °F 33.2 °F 29.97 in SW 0.8 mph 2.3 mph 79 % 0.00 in
20:49 39.1 °F 33.5 °F 29.97 in SSW 2.1 mph 3.5 mph 80 % 0.00 in
20:54 38.9 °F 33.3 °F 29.97 in SW 1.4 mph 3.5 mph 80 % 0.00 in
20:59 38.8 °F 33.2 °F 29.98 in SW 2.0 mph 3.5 mph 80 % 0.00 in
21:04 38.6 °F 33.3 °F 29.98 in WSW 2.2 mph 3.5 mph 81 % 0.00 in
21:09 38.5 °F 33.2 °F 29.98 in SSW 1.4 mph 2.3 mph 81 % 0.00 in
21:14 38.4 °F 33.4 °F 29.98 in SW 0.5 mph 3.5 mph 82 % 0.00 in
21:19 38.3 °F 33.3 °F 29.98 in West 3.0 mph 4.6 mph 82 % 0.00 in
21:24 38.2 °F 33.5 °F 29.98 in WSW 1.6 mph 3.5 mph 83 % 0.00 in
21:29 38.2 °F 33.5 °F 29.98 in SW 3.2 mph 4.6 mph 83 % 0.00 in
21:34 38.2 °F 33.5 °F 29.98 in WSW 3.1 mph 6.9 mph 83 % 0.00 in
21:39 38.2 °F 33.5 °F 29.99 in SW 2.4 mph 6.9 mph 83 % 0.00 in
21:44 38.2 °F 33.8 °F 29.99 in West 2.6 mph 6.9 mph 84 % 0.00 in
21:50 38.3 °F 33.9 °F 29.99 in WSW 4.1 mph 5.8 mph 84 % 0.00 in
21:55 38.3 °F 33.6 °F 29.99 in WNW 2.1 mph 3.5 mph 83 % 0.00 in
22:00 38.4 °F 33.7 °F 29.99 in WSW 4.1 mph 9.0 mph 83 % 0.00 in
22:05 38.5 °F 33.8 °F 29.99 in WSW 1.9 mph 6.9 mph 83 % 0.00 in
22:10 38.6 °F 33.6 °F 29.99 in WSW 3.8 mph 10.4 mph 82 % 0.00 in
22:15 38.7 °F 33.1 °F 30.00 in WNW 1.8 mph 6.9 mph 80 % 0.00 in
22:20 38.9 °F 32.6 °F 30.00 in WSW 4.4 mph 8.0 mph 78 % 0.00 in
22:25 39.0 °F 32.4 °F 30.00 in West 6.4 mph 10.4 mph 77 % 0.00 in
22:30 39.1 °F 32.5 °F 29.99 in West 4.6 mph 8.1 mph 77 % 0.00 in
22:35 39.3 °F 32.4 °F 30.00 in WSW 6.1 mph 11.5 mph 76 % 0.00 in
22:40 39.4 °F 32.1 °F 30.00 in SW 6.6 mph 9.2 mph 75 % 0.00 in
22:45 39.4 °F 32.1 °F 30.00 in WSW 6.7 mph 10.4 mph 75 % 0.00 in
22:50 39.4 °F 31.8 °F 30.00 in WSW 3.3 mph 8.1 mph 74 % 0.00 in
22:55 39.3 °F 31.7 °F 30.00 in WNW 2.0 mph 4.6 mph 74 % 0.00 in
23:00 39.2 °F 31.9 °F 30.00 in SW 3.8 mph 6.9 mph 75 % 0.00 in
23:05 39.1 °F 31.8 °F 29.99 in West 2.9 mph 4.6 mph 75 % 0.00 in
23:10 38.9 °F 31.6 °F 29.98 in West 2.7 mph 5.8 mph 75 % 0.00 in
23:16 38.7 °F 31.8 °F 29.99 in WNW 5.2 mph 10.4 mph 76 % 0.00 in
23:21 38.6 °F 31.7 °F 30.00 in WNW 2.2 mph 4.0 mph 76 % 0.00 in
23:26 38.5 °F 31.9 °F 30.00 in West 2.0 mph 5.8 mph 77 % 0.00 in
23:31 38.4 °F 31.8 °F 30.00 in WSW 4.8 mph 11.0 mph 77 % 0.00 in
23:36 38.2 °F 31.9 °F 30.00 in West 4.1 mph 5.8 mph 78 % 0.00 in
23:41 38.2 °F 31.9 °F 30.01 in West 2.7 mph 6.0 mph 78 % 0.00 in
23:46 38.0 °F 31.7 °F 30.01 in West 3.6 mph 5.8 mph 78 % 0.00 in
23:51 37.9 °F 31.7 °F 30.00 in WNW 4.2 mph 8.1 mph 78 % 0.00 in
23:56 37.8 °F 31.6 °F 30.00 in WNW 3.2 mph 5.8 mph 78 % 0.00 in
Crab Meadow Weather
Compliments of Weather Underground - 3 mb

Script developed by  Jim McMurry - jmcmurry@mwt.net Adapted for the template by  Wim van der Kuil - Leuven-Template.eu

Astronomy: It takes 16 million horsepower to break loose from the Earth's gravitational pull.